Retour au catalogue

CZ-6A DEB

ActifPO
NORAD 61429·DEBRIS·🇨🇳 China

Lancé Aug 6, 2024 depuis Taiyuan Satellite Launch Center

Loading…

Prochains Passages (prochaines 24 heures)

TLE

FraisSource: Space-Track

Époque: Sep 14, 2026, 22:51 UTC

1 61429U 24140YW  26257.95276566  .00004089  00000-0  10976-2 0  9997
2 61429  88.9582 258.3450 0143983  81.7833 279.9670 14.41943511108382

Suivez CZ-6A DEB en temps réel avec AllMySat

Download on the App Store